Saginaw, MI

4:16 AM EDT on July 25, 2017 (GMT -0400)
MBS International

Weather History for KMBS - March, 2013

Change the Weather History Date:

Monday, March 18, 2013

  Actual Average Record
Temperature  
Mean Temperature 26 °F 34 °F  
Max Temperature 34 °F 43 °F 73 °F (2012)
Min Temperature 19 °F 26 °F 19 °F (2004)
Degree Days  
Heating Degree Days 39    
Month to date heating degree days  
Since 1 July heating degree days  
Cooling Degree Days 0    
Month to date cooling degree days  
Year to date cooling degree days  
Moisture  
Dew Point 25 °F    
Average Humidity 83    
Maximum Humidity 93    
Minimum Humidity 64    
Precipitation  
Precipitation 0.11 in 0.07 in 0.87 in (1998)
Month to date precipitation 1.19  
Year to date precipitation 4.51  
Snow  
Snow 0.00 in - - ()
Month to date snowfall  
Since 1 July snowfall  
Snow Depth -    
Sea Level Pressure  
Sea Level Pressure 29.73 in    
Wind  
Wind Speed 9 mph (East)    
Max Wind Speed 18 mph    
Max Gust Speed -    
Visibility 4 miles    
Events Fog , Snow    
T = Trace of Precipitation, MM = Missing Value Source: NWS Daily Summary

Daily Weather History Graph

Daily Weather History Graph

Search for Another Location

Airport or City:

Trip Planner

Search our weather history database for the weather conditions in past years. The results will help you decide how hot, cold, wet, or windy it might be!

Date:

Astronomy

Mar. 18, 2013 Rise Set
Actual Time 7:42 AM EDT 7:46 PM EDT
Civil Twilight 7:14 AM EDT 8:15 PM EDT
Nautical Twilight 6:40 AM EDT 8:48 PM EDT
Astronomical Twilight 6:06 AM EDT 9:22 PM EDT
Moon 11:31 AM EDT (3/18) 1:55 AM EDT (3/18)
Length of Visible Light 13h 00m
Length of Day
12h 03m
Waxing Crescent, 40% of the Moon is Illuminated
Mar 18
Waxing Crescent
Mar 19
First Quarter
Mar 27
Full
Apr 3
Last Quarter
Apr 10
New

Hourly Weather History & Observations

Time (EDT) Temp. Windchill Dew Point Humidity Pressure Visibility Wind Dir Wind Speed Gust Speed Precip Events Conditions
12:53 AM 19.0 °F 9.0 °F 10.9 °F 71% 30.24 in 10.0 mi East 8.1 mph - N/A   Clear
1:53 AM 19.0 °F 9.0 °F 10.9 °F 71% 30.20 in 10.0 mi ENE 8.1 mph - N/A   Clear
2:53 AM 19.0 °F 11.1 °F 12.0 °F 74% 30.19 in 10.0 mi East 5.8 mph - N/A   Clear
3:53 AM 19.0 °F 9.0 °F 12.9 °F 77% 30.16 in 10.0 mi ENE 8.1 mph - N/A   Clear
4:53 AM 19.9 °F 10.1 °F 12.9 °F 74% 30.12 in 10.0 mi East 8.1 mph - N/A   Clear
5:53 AM 21.0 °F 11.4 °F 14.0 °F 74% 30.10 in 10.0 mi ENE 8.1 mph - N/A   Clear
6:53 AM 21.9 °F 11.0 °F 15.1 °F 75% 30.07 in 10.0 mi ENE 10.4 mph - N/A   Clear
7:53 AM 23.0 °F 12.4 °F 16.0 °F 74% 30.04 in 10.0 mi ENE 10.4 mph - N/A   Clear
8:53 AM 24.1 °F 12.5 °F 17.1 °F 75% 30.01 in 10.0 mi East 12.7 mph - N/A   Clear
9:53 AM 27.0 °F 15.6 °F 18.0 °F 69% 29.94 in 10.0 mi East 13.8 mph - N/A   Clear
10:53 AM 30.0 °F 19.1 °F 19.9 °F 66% 29.92 in 10.0 mi East 15.0 mph - N/A   Clear
11:48 AM 32.0 °F 21.2 °F 21.2 °F 64% 29.84 in 10.0 mi East 16.1 mph - N/A   Mostly Cloudy
11:53 AM 32.0 °F 20.8 °F 21.0 °F 64% 29.86 in 10.0 mi East 17.3 mph - N/A   Mostly Cloudy
12:53 PM 32.0 °F 21.6 °F 23.0 °F 69% 29.82 in 10.0 mi East 15.0 mph - N/A   Overcast
1:29 PM 33.8 °F 23.9 °F 24.8 °F 70% 29.77 in 1.5 mi East 15.0 mph - 0.00 in Snow Light Snow
1:53 PM 32.0 °F 22.1 °F 25.0 °F 75% 29.78 in 2.0 mi East 13.8 mph - 0.00 in Snow Light Snow
2:24 PM 32.0 °F 20.5 °F 24.8 °F 75% 29.72 in 6.0 mi East 18.4 mph - 0.00 in   Haze
2:44 PM 32.0 °F 22.5 °F 24.8 °F 75% 29.70 in 2.5 mi East 12.7 mph - 0.00 in Snow Light Snow
2:53 PM 32.0 °F 22.1 °F 26.1 °F 79% 29.72 in 2.0 mi East 13.8 mph - 0.00 in Snow Light Snow
3:23 PM 32.0 °F 22.1 °F 26.6 °F 80% 29.66 in 1.0 mi East 13.8 mph - 0.00 in Snow Light Snow
3:48 PM 30.2 °F 20.2 °F 28.4 °F 93% 29.65 in 1.0 mi East 12.7 mph - 0.00 in Snow Light Snow
3:53 PM 32.0 °F 23.0 °F 28.0 °F 85% 29.68 in 1.0 mi East 11.5 mph - 0.00 in Snow Light Snow
4:25 PM 32.0 °F 23.0 °F 28.4 °F 87% 29.62 in 1.0 mi East 11.5 mph - 0.00 in Snow Light Snow
4:32 PM 32.0 °F 23.0 °F 28.4 °F 87% 29.63 in 1.0 mi East 11.5 mph - 0.00 in Snow Light Snow
4:53 PM 32.0 °F 23.6 °F 28.0 °F 85% 29.65 in 3.0 mi East 10.4 mph - 0.01 in   Overcast
5:16 PM 32.0 °F 23.6 °F 28.4 °F 87% 29.61 in 1.5 mi ESE 10.4 mph - 0.00 in Snow Light Snow
5:40 PM 32.0 °F 24.8 °F 28.4 °F 87% 29.60 in 0.8 mi East 8.1 mph - 0.01 in Snow Light Snow
5:48 PM 32.0 °F 24.8 °F 28.4 °F 87% 29.59 in 0.8 mi East 8.1 mph - 0.01 in Snow Light Snow
5:53 PM 32.0 °F 24.8 °F 28.9 °F 88% 29.62 in 0.8 mi East 8.1 mph - 0.01 in Snow Light Snow
6:05 PM 32.0 °F 25.6 °F 30.2 °F 93% 29.58 in 0.2 mi East 6.9 mph - 0.02 in Fog , Snow Snow
6:18 PM 32.0 °F 27.5 °F 30.2 °F 93% 29.58 in 0.8 mi East 4.6 mph - 0.02 in Snow Light Snow
6:37 PM 32.0 °F 25.6 °F 30.2 °F 93% 29.57 in 0.8 mi East 6.9 mph - 0.03 in Snow Light Snow
6:48 PM 32.0 °F 25.6 °F 30.2 °F 93% 29.57 in 0.8 mi East 6.9 mph - 0.04 in Snow Light Snow
6:53 PM 32.0 °F 26.4 °F 30.0 °F 92% 29.60 in 0.8 mi East 5.8 mph - 0.04 in Snow Light Snow
7:26 PM 32.0 °F 27.5 °F 30.2 °F 93% 29.57 in 0.8 mi East 4.6 mph - 0.01 in Snow Light Snow
7:53 PM 32.0 °F 28.7 °F 30.0 °F 92% 29.59 in 0.5 mi East 3.5 mph - 0.02 in Fog , Snow Light Snow
8:09 PM 32.0 °F - 30.2 °F 93% 29.56 in 0.8 mi Calm Calm - 0.01 in Snow Light Snow
8:53 PM 32.0 °F - 30.0 °F 92% 29.58 in 1.5 mi Calm Calm - 0.03 in Snow Light Snow
9:00 PM 32.0 °F - 30.2 °F 93% 29.55 in 2.0 mi Calm Calm - 0.00 in Snow Light Snow
9:11 PM 32.0 °F - 30.2 °F 93% 29.55 in 1.5 mi Calm Calm - 0.00 in Snow Light Snow
9:23 PM 32.0 °F - 30.2 °F 93% 29.55 in 1.2 mi Calm Calm - 0.00 in Snow Light Snow
9:43 PM 32.0 °F - 30.2 °F 93% 29.54 in 2.5 mi Calm Calm - 0.00 in   Overcast
9:53 PM 32.0 °F - 30.0 °F 92% 29.57 in 3.0 mi Calm Calm - 0.00 in   Overcast
9:57 PM 32.0 °F 28.7 °F 30.2 °F 93% 29.55 in 1.2 mi SSW 3.5 mph - N/A   Overcast
10:08 PM 32.0 °F 27.5 °F 30.2 °F 93% 29.55 in 1.2 mi SSW 4.6 mph - N/A   Overcast
10:44 PM 33.8 °F 24.8 °F 30.2 °F 87% 29.55 in 5.0 mi SW 12.7 mph - N/A   Overcast
10:53 PM 33.1 °F 23.9 °F 30.0 °F 89% 29.57 in 6.0 mi SW 12.7 mph - N/A   Overcast
11:26 PM 33.8 °F 23.5 °F 30.2 °F 87% 29.54 in 9.0 mi SW 16.1 mph - N/A   Overcast
11:53 PM 34.0 °F 24.2 °F 30.0 °F 85% 29.57 in 9.0 mi SW 15.0 mph - N/A   Overcast